Content
SEND FEEDBACK

Daily
Averages
Monthly
Summary
United States of America

HADLEY, NEW YORK


Home > North America > United States > New York
Elevation: 246 meters     Latitude: 43 19N     Longitude: 073 56W

WEATHER
 
SELECT A DAY
Number of Records: 213,124;   Date Range: 1/1/95 - 8/12/14
 
SHARE

PRINT THIS DATA

[ ← Previous Day ]
WEATHER ALMANAC - 31 JANUARY, 2013
[ Next Day → ]
[ °F ]   °C
Weather ElementAverageHighLow
Temperature7.1 °C12 °C (1:25 am)-3.3 °C (11:53 pm)
Dewpoint3.3 °C11.1 °C (12:53 am)-13.9 °C (7:53 pm)
Humidity80.4 %100 % (12:53 am)40 % (7:53 pm)
Barometer987.1 hPa1002.4 hPa (11:53 pm)978.3 hPa (5:28 am)
Wind Speed13.4 km/h35.2 km/h (6:38 am)
Wind Gust66.6 km/h (6:38 am)
Weather ElementAverage
Visibility8.2 km
Wind DirectionSSW (188.4 °)

Weather ElementTotal
Precipitation43.18 mm
Heating Degree Days14 (Base 18.3)
Averaged from 50 records on 31 January, 2013
WEATHER CONDITIONS BREAKOUT
WIND DIRECTION BREAKOUT
WEATHER BY HOUR - 31 JANUARY, 2013
[ °F ]   °C
Local TimeTemperatureDewpointHumidityBarometerVisibilityWind DirectionWind SpeedGust SpeedPrecipitationEventsConditions
12:53 AM11.1 °C11.1 °C100 %989.8 hPa6.4 kmSouth (170°)13 km/h1.02 mmRainLight Rain
1:08 AM11 °C11 °C100 %988.5 hPa2.9 kmSSE (160°)11.1 km/h0.25 mmRainLight Rain
1:13 AM11 °C11 °C100 %988.5 hPa1.3 kmSouth (180°)9.3 km/h0.25 mmRainLight Rain
1:25 AM12 °C11 °C94 %988.1 hPa3.2 kmSouth (180°)13 km/h0.76 mmRainLight Rain
1:34 AM11 °C11 °C100 %987.5 hPa6.4 kmSouth (170°)11.1 km/h1.02 mmRainLight Rain
1:53 AM11.1 °C11.1 °C100 %987.5 hPa3.2 kmSouth (180°)7.4 km/h1.27 mmRainLight Rain
2:00 AM11 °C11 °C100 %987.1 hPa1.9 kmSSW (210°)9.3 km/h0 mmRainLight Rain
2:08 AM11 °C11 °C100 %986.5 hPa4.8 kmSouth (180°)7.4 km/h0.25 mmRainLight Rain
2:16 AM11 °C11 °C100 %985.8 hPa2.9 kmCalm0.51 mmRainLight Rain
2:25 AM11 °C11 °C100 %985.4 hPa1.3 kmCalm0.51 mmRainLight Rain
2:30 AM11 °C11 °C100 %985.4 hPa1.6 kmSouth (190°)5.6 km/h0.51 mmRainLight Rain
2:41 AM11 °C11 °C100 %985.1 hPa1.3 kmSSW (200°)5.6 km/h1.02 mmRainLight Rain
2:51 AM11 °C10 °C94 %984.8 hPa2.9 kmSW (220°)5.6 km/h1.27 mmRainLight Rain
2:53 AM11.1 °C10.6 °C97 %984.8 hPa2.9 kmSW (230°)5.6 km/h1.52 mmRainLight Rain
3:00 AM11 °C11 °C100 %984.4 hPa3.2 kmSSW (200°)9.3 km/h0.25 mmRainRain
3:14 AM11 °C11 °C100 %983.4 hPa4.8 kmSouth (190°)7.4 km/h1.02 mmRainLight Rain
3:44 AM11 °C10 °C94 %981.7 hPa8 kmSouth (170°)5.6 km/h1.27 mmRainLight Rain
3:53 AM10 °C10 °C100 %981.4 hPa4 kmCalm1.52 mmRainLight Rain
4:09 AM11 °C10 °C94 %981 hPa9.7 kmSouth (180°)9.3 km/h0.25 mmRainLight Rain
4:21 AM10 °C10 °C100 %980.4 hPa4.8 kmSSE (160°)9.3 km/h0.76 mmRainRain
4:28 AM10 °C10 °C100 %980 hPa2.4 kmSouth (170°)7.4 km/h1.02 mmRainLight Rain
4:37 AM10 °C10 °C100 %979.3 hPa0.8 kmSE (130°)7.4 km/h1.52 mmFog-RainLight Rain
4:53 AM10 °C9.4 °C96 %980.7 hPa1.6 kmWSW (240°)9.3 km/h1.78 mmRainLight Rain
5:02 AM10 °C10 °C100 %980 hPa3.2 kmCalm0.76 mmRainRain
5:09 AM10 °C10 °C100 %980 hPa1.6 kmCalm1.52 mmRainRain
5:17 AM10 °C10 °C100 %979.3 hPa0.8 kmCalm2.54 mmFog-RainHeavy Rain
5:28 AM10 °C9 °C94 %978.3 hPa0.3 kmCalm3.56 mmFog-RainRain
5:36 AM10 °C9 °C94 %979.7 hPa1.3 kmSSW (200°)11.1 km/h3.81 mmRainRain
5:43 AM10 °C9 °C94 %980.4 hPa3.2 kmWest (270°)18.5 km/h4.57 mmRainRain
5:53 AM10 °C10 °C100 %979.3 hPa3.2 kmSSW (210°)11.1 km/h5.84 mmRainRain
6:38 AM10 °C9 °C94 %980 hPa14.5 kmWest (270°)35.2 km/h66.6 km/h0.25 mmRainLight Rain
6:53 AM7.8 °C3.9 °C76 %981 hPa11.3 kmWest (270°)20.4 km/h48.1 km/h0.51 mmRainLight Rain
7:03 AM7 °C3 °C76 %980.7 hPa16.1 kmWest (280°)24.1 km/h46.3 km/h0 mmRainLight Rain
7:53 AM5.6 °C0.6 °C70 %983.1 hPa16.1 kmWSW (250°)16.7 km/h31.5 km/h0 mmOvercast
8:53 AM4.4 °C-0.6 °C70 %986.1 hPa16.1 kmWSW (250°)14.8 km/hOvercast
9:53 AM3.9 °C-3.9 °C57 %988.5 hPa16.1 kmWSW (240°)24.1 km/h46.3 km/hOvercast
10:53 AM2.8 °C-5.6 °C54 %989.8 hPa16.1 kmSW (230°)29.6 km/h50.1 km/h0.25 mmOvercast
11:53 AM2.8 °C-7.8 °C46 %990.5 hPa16.1 kmWSW (240°)35.2 km/h59.2 km/hOvercast
12:53 PM1.7 °C-9.4 °C44 %992.2 hPa16.1 kmWest (270°)22.2 km/h51.8 km/hOvercast
1:53 PM1.1 °C-10.6 °C42 %993.2 hPa16.1 kmWSW (250°)18.5 km/h44.4 km/hOvercast
2:53 PM2.2 °C-10 °C41 %994.6 hPa16.1 kmWest (260°)25.9 km/h40.7 km/hOvercast
3:53 PM0 °C-9 °C51 %995.6 hPa16.1 kmWSW (250°)33.3 km/h55.5 km/hMostly Cloudy
4:53 PM-1.1 °C-10.6 °C49 %997.6 hPa16.1 kmWSW (250°)16.7 km/h33.3 km/hPartly Cloudy
5:53 PM-1.1 °C-12.2 °C43 %998.6 hPa16.1 kmWSW (250°)35.2 km/h61.2 km/hOvercast
6:53 PM-1.7 °C-12.8 °C43 %1000 hPa16.1 kmWSW (240°)25.9 km/h37 km/hMostly Cloudy
7:53 PM-1.7 °C-13.9 °C40 %1000.7 hPa16.1 kmWSW (240°)14.8 km/h40.7 km/hPartly Cloudy
8:53 PM-2.2 °C-13.9 °C41 %1001 hPa16.1 kmWSW (250°)20.4 km/h50.1 km/hPartly Cloudy
9:53 PM-2.8 °C-13.9 °C43 %1001.7 hPa16.1 kmWSW (250°)14.8 km/h25.9 km/hScattered Clouds
10:53 PM-2.8 °C-12.8 °C47 %1002 hPa16.1 kmSW (230°)13 km/hMostly Cloudy
11:53 PM-3.3 °C-13.9 °C44 %1002.4 hPa16.1 kmWest (260°)16.7 km/h35.2 km/hMostly Cloudy
Hourly data recorded from KGFL, located 0 kilometers away from Hadley, New York







STORIES FROM OUR PARTNERS